Location: Unspecified
(0.0000°N, 0.0000°E)
Time: 18:48:03
(UTC+00:00)

Hubble Space Telescope - Pass Details

Date: 21 February 2019
Orbit: 537 x 540 km, 28.5° (Epoch: 17 April)

Event Time Altitude Azimuth Distance (km) Brightness Sun altitude
Rises 20:24:02 0° 283° (WNW) 2,674 5.2 -32.0°
Reaches altitude 10° 20:26:29 10° 272° (W) 1,784 4.2 -32.6°
Enters shadow 20:28:01 19° 257° (WSW) 1,300 3.4 -33.0°
